Date,TemperatureHighF,TemperatureAvgF,TemperatureLowF,DewpointHighF,DewpointAvgF,DewpointLowF,HumidityHigh,HumidityAvg,HumidityLow,PressureMaxIn,PressureMinIn,WindSpeedMaxMPH,WindSpeedAvgMPH,GustSpeedMaxMPH,PrecipitationSumIn
2013-1-1,31,25,15,28,17,8,88,70,53,0.00,40.00,10,5,14,0.00
2013-1-2,25,17,8,19,14,6,96,85,77,0.00,40.00,8,4,12,0.00
2013-1-3,29,21,6,27,17,3,91,83,75,0.00,40.00,12,7,18,0.00
2013-1-4,29,25,17,23,20,15,92,80,68,0.00,40.00,17,11,24,0.00
2013-1-5,36,27,15,33,24,14,99,87,66,0.00,40.00,11,5,16,0.00
2013-1-6,36,34,29,34,31,26,97,89,75,0.00,40.00,17,9,27,0.00
2013-1-7,36,31,25,28,25,24,95,80,66,0.00,40.00,15,7,21,0.00
2013-1-8,40,29,18,29,25,18,99,85,60,0.00,40.00,9,3,12,0.00
2013-1-9,46,39,29,35,31,24,94,73,53,0.00,40.00,21,9,27,0.00
2013-1-10,40,32,22,36,30,22,99,90,71,0.00,40.00,7,3,14,2.24
2013-1-11,59,47,36,56,46,36,99,94,73,0.00,40.00,15,6,24,0.00
2013-1-12,62,52,45,53,50,45,99,91,71,0.00,40.00,12,5,17,0.55
2013-1-13,52,39,31,52,39,27,99,98,77,0.00,40.00,17,7,25,7.28
2013-1-14,30,24,17,27,19,16,94,81,70,0.00,40.00,21,8,29,0.00
2013-1-15,28,17,13,24,16,13,97,95,83,0.00,40.00,4,1,6,0.00
2013-1-17,39,31,20,29,20,11,88,63,53,0.00,40.00,19,11,28,0.00
2013-1-18,37,29,19,25,21,15,95,72,55,0.00,40.00,15,7,27,0.00
2013-1-19,50,42,37,37,31,24,77,63,54,0.00,40.00,19,13,29,0.00
2013-1-20,44,24,19,36,14,9,74,65,51,0.00,40.00,32,17,48,0.55
2013-1-21,20,16,9,12,8,4,86,71,59,0.00,40.00,21,13,32,0.00
2013-1-22,12,8,2,5,2,-1,88,79,69,0.00,40.00,17,9,23,1.10
2013-1-23,18,12,2,17,7,-2,97,78,59,0.00,40.00,17,6,25,1.65
2013-1-24,23,14,6,17,6,-1,94,71,43,0.00,40.00,17,5,25,0.00
2013-1-25,23,20,16,23,16,8,98,84,66,0.00,40.00,7,4,12,3.30
2013-1-26,30,23,13,24,17,10,99,80,54,0.00,40.00,13,5,18,2.75
2013-1-27,32,24,13,31,20,12,98,86,64,0.00,40.00,11,4,18,0.55
2013-1-28,49,42,32,49,42,31,99,99,96,0.00,40.00,13,5,19,1.10
2013-1-29,59,52,40,58,51,40,99,98,94,0.00,40.00,14,7,22,8.38
2013-1-30,62,50,32,60,48,26,99,94,81,0.00,40.00,24,11,35,8.41
2013-1-31,31,20,15,27,14,8,90,74,61,0.00,40.00,23,17,34,0.55
2013-2-1,17,13,8,9,6,4,83,74,64,0.00,40.00,21,13,27,1.10
2013-2-2,25,19,13,23,15,7,94,85,75,0.00,40.00,11,6,17,12.81
2013-2-3,22,16,5,19,12,3,94,86,72,0.00,40.00,15,5,22,2.20
2013-2-4,25,21,17,23,19,14,97,91,82,0.00,40.00,9,4,12,8.33
2013-2-5,31,22,6,29,20,5,99,92,70,0.00,40.00,14,4,20,0.55
2013-2-6,39,26,9,29,16,7,94,69,40,0.00,40.00,14,4,20,0.00
2013-2-7,41,31,22,32,25,17,98,79,62,0.00,40.00,10,4,16,5.63
2013-2-8,33,29,15,33,25,14,99,85,62,0.00,40.00,16,7,25,3.38
2013-2-9,31,22,10,25,17,9,97,83,60,0.00,40.00,7,3,12,0.00
2013-2-10,46,33,21,46,29,20,99,86,67,0.00,40.00,9,4,15,4.49
2013-2-11,46,38,32,46,32,23,99,76,66,0.00,40.00,27,17,40,0.00
2013-2-12,36,32,29,26,25,23,79,73,66,0.00,40.00,20,10,29,0.00
2013-2-13,43,32,26,31,26,23,94,79,55,0.00,40.00,9,4,12,0.00
2013-2-14,42,36,32,37,32,26,96,85,67,0.00,40.00,22,10,32,0.00
2013-2-15,34,30,21,27,21,15,86,71,56,0.00,40.00,16,8,21,0.00
2013-2-16,26,21,15,22,16,7,94,80,54,0.00,40.00,19,8,24,0.00
2013-2-17,28,20,14,17,12,7,91,74,45,0.00,40.00,12,5,18,0.00
2013-2-18,52,36,21,42,27,15,86,69,52,0.00,40.00,12,6,26,1.10
2013-2-19,46,26,16,44,23,12,99,86,68,0.00,40.00,25,17,35,12.90
2013-2-20,23,20,17,19,16,13,91,83,72,0.00,40.00,18,12,28,13.28
2013-2-21,28,24,21,20,18,16,84,77,71,0.00,40.00,13,6,21,0.00
2013-2-22,35,28,22,35,27,18,99,95,83,0.00,40.00,12,6,22,7.32
2013-2-23,34,30,27,32,22,20,90,74,64,0.00,40.00,15,9,22,0.00
2013-2-24,35,30,26,28,24,20,87,79,69,0.00,40.00,13,6,18,0.00
2013-2-25,42,31,18,32,25,18,99,79,54,0.00,40.00,7,2,12,0.00
2013-2-26,34,32,30,33,29,26,99,88,79,0.00,40.00,13,6,24,3.34
2013-2-27,35,34,32,35,34,32,99,99,99,0.00,40.00,12,8,16,16.74
2013-2-28,39,35,32,35,32,29,99,88,73,0.00,40.00,12,7,19,3.85
2013-3-1,33,29,26,32,23,19,96,76,60,0.00,40.00,12,6,19,0.00
2013-3-2,29,26,22,21,20,16,83,76,67,0.00,40.00,12,6,14,1.65
2013-3-3,30,25,21,18,16,14,80,69,52,0.00,40.00,14,7,20,0.00
2013-3-4,40,25,12,22,16,11,97,71,43,0.00,40.00,5,2,7,0.00
2013-3-5,33,29,25,30,26,18,99,85,73,0.00,40.00,12,6,25,10.12
2013-3-6,40,32,27,31,28,24,99,82,63,0.00,40.00,12,6,20,0.00
2013-3-7,39,34,31,33,27,21,96,76,54,0.00,40.00,14,6,20,0.00
2013-3-8,45,33,20,31,23,19,98,69,46,0.00,40.00,6,2,8,0.00
2013-3-9,46,36,23,37,31,23,99,83,65,0.00,40.00,7,3,16,0.00
2013-3-10,58,51,38,42,40,38,99,67,52,0.00,40.00,9,5,19,0.55
2013-3-11,59,49,37,52,45,34,99,86,51,0.00,40.00,21,10,29,9.48
2013-3-12,37,34,31,35,30,27,99,87,72,0.00,40.00,17,11,24,0.00
2013-3-13,31,29,26,31,22,17,99,77,60,0.00,40.00,26,14,32,0.00
2013-3-14,41,32,23,26,21,18,80,65,44,0.00,40.00,14,7,19,0.00
2013-3-15,47,38,32,42,34,26,99,85,66,0.00,40.00,14,6,19,2.75
2013-3-16,39,33,31,38,31,26,99,94,81,0.00,40.00,10,5,18,0.00
2013-3-17,34,30,28,28,21,16,85,68,53,0.00,40.00,12,6,19,0.00
2013-3-18,36,32,27,36,31,22,99,95,79,0.00,40.00,18,7,25,2.24
2013-3-19,35,28,22,35,18,14,98,65,48,0.00,40.00,24,17,37,3.34
2013-3-20,29,25,18,20,15,10,81,65,54,0.00,40.00,22,12,27,0.00
2013-3-21,32,24,17,24,19,13,94,80,64,0.00,40.00,19,11,24,0.55
2013-3-22,42,32,25,25,22,18,80,66,47,0.00,40.00,15,8,20,0.00
2013-3-23,43,32,22,30,24,22,99,76,47,0.00,40.00,6,2,11,0.00
2013-3-24,37,32,27,28,26,21,95,79,60,0.00,40.00,16,7,29,0.55
2013-3-25,38,34,30,32,29,25,97,83,67,0.00,40.00,14,8,24,4.99
2013-3-26,42,36,33,34,31,29,96,80,61,0.00,40.00,17,9,21,0.00
2013-3-27,46,38,31,33,28,23,96,69,45,0.00,40.00,21,11,27,0.00
2013-3-28,53,40,30,30,27,23,85,61,38,0.00,40.00,12,7,25,0.00
2013-3-29,54,39,24,34,25,21,99,62,30,0.00,40.00,12,4,19,0.00
2013-3-30,57,42,23,37,28,23,99,63,33,0.00,40.00,12,4,19,0.00
2013-3-31,61,47,36,47,37,-100,99,75,37,0.00,40.00,22,8,35,2.24
2013-4-1,41,34,27,33,21,14,83,59,41,0.00,40.00,21,12,28,0.00
2013-4-2,43,31,20,26,17,11,94,61,33,0.00,40.00,21,8,27,0.00
2013-4-3,48,33,19,25,17,13,93,57,26,0.00,40.00,16,5,21,0.00
2013-4-4,57,39,21,27,22,17,94,54,25,0.00,40.00,12,3,16,0.00
2013-4-5,54,43,33,36,27,17,85,56,28,0.00,40.00,13,5,21,0.00
2013-4-6,61,46,33,37,29,24,82,53,34,0.00,40.00,15,7,27,0.00
2013-4-7,61,55,43,50,43,36,87,64,44,0.00,40.00,27,12,39,0.00
2013-4-8,72,51,38,60,46,37,99,84,53,0.00,40.00,23,7,37,1.69
2013-4-9,74,56,43,64,49,42,99,80,49,0.00,40.00,13,4,23,0.00
2013-4-10,58,48,43,52,47,43,99,98,80,0.00,40.00,11,5,17,3.89
2013-4-11,44,41,38,44,40,38,100,99,99,0.00,40.00,24,8,36,14.09
2013-4-12,42,40,39,41,38,32,99,90,71,0.00,40.00,17,9,24,7.32
2013-4-13,42,40,37,37,34,30,96,78,62,0.00,40.00,21,11,27,0.00
2013-4-14,55,44,37,45,38,30,94,78,62,0.00,40.00,12,4,19,0.00
2013-4-15,70,56,38,58,49,38,99,80,58,0.00,40.00,16,6,24,0.00
2013-4-16,63,54,48,57,48,39,99,80,51,0.00,40.00,15,6,22,6.77
2013-4-17,55,49,44,45,39,36,98,67,58,0.00,40.00,14,6,22,7.36
2013-4-18,77,59,44,67,57,44,99,95,68,0.00,40.00,20,8,39,10.07
2013-4-19,59,44,37,59,40,31,99,84,69,0.00,40.00,25,15,37,9.01
2013-4-20,42,37,32,33,26,19,98,66,44,0.00,40.00,18,12,35,0.00
2013-4-21,51,39,29,35,28,20,93,66,45,0.00,40.00,9,4,17,0.00
2013-4-22,65,49,34,39,34,31,99,63,28,0.00,40.00,9,4,15,0.00
2013-4-23,71,55,42,58,47,39,99,78,43,0.00,40.00,16,5,29,8.38
2013-4-24,57,42,37,57,38,27,99,87,55,0.00,40.00,18,10,25,9.47
2013-4-25,51,43,37,40,34,28,88,72,48,0.00,40.00,22,9,32,2.79
2013-4-26,61,48,32,41,35,32,99,66,38,0.00,40.00,9,4,16,0.00
2013-4-27,70,55,38,47,40,36,99,62,29,0.00,40.00,11,3,16,0.00
2013-4-28,59,55,50,59,51,-100,99,91,64,0.00,40.00,6,2,11,8.93
2013-4-29,72,62,55,59,56,55,99,83,55,0.00,40.00,9,4,15,0.00
2013-4-30,77,65,54,60,57,54,99,77,51,0.00,40.00,12,6,19,0.00
2013-5-1,84,69,52,64,58,52,99,71,40,0.00,40.00,9,3,15,0.00
2013-5-2,80,68,56,61,56,52,97,69,41,0.00,40.00,12,5,20,0.00
2013-5-3,79,68,56,61,53,42,95,62,29,0.00,40.00,14,5,22,0.00
2013-5-4,71,62,54,51,48,42,85,60,35,0.00,40.00,12,5,20,0.00
2013-5-5,73,62,52,51,47,42,92,61,39,0.00,40.00,9,4,16,0.00
2013-5-6,75,64,54,53,48,44,74,57,40,0.00,40.00,7,4,14,0.00
2013-5-7,77,64,50,59,52,48,96,68,46,0.00,40.00,9,3,18,0.00
2013-5-8,81,67,53,62,54,49,99,69,35,0.00,40.00,10,3,17,0.55
2013-5-9,83,68,52,61,54,45,99,68,27,0.00,40.00,12,3,23,4.53
2013-5-10,73,62,47,64,56,-100,99,87,63,0.00,40.00,16,9,22,0.55
2013-5-11,57,49,41,51,45,35,98,85,61,0.00,40.00,23,8,30,0.00
2013-5-12,51,43,35,37,31,-100,96,66,45,0.00,40.00,21,5,29,0.00
2013-5-13,59,44,29,37,28,23,99,60,28,0.00,40.00,17,4,24,0.00
2013-5-14,84,63,43,59,46,33,86,56,37,0.00,40.00,18,-43,24,0.00
2013-5-15,85,77,64,64,58,49,88,53,32,0.00,40.00,22,11,30,0.00
2013-5-16,86,65,50,55,30,-100,97,56,27,0.00,40.00,9,3,16,0.00
2013-5-17,79,65,53,54,44,-100,70,54,38,0.00,40.00,9,4,19,0.00
2013-5-18,83,68,55,62,54,47,86,63,46,0.00,40.00,7,3,14,0.00
2013-5-19,89,72,55,68,61,50,94,68,46,0.00,40.00,9,3,14,0.00
2013-5-20,91,79,67,74,69,65,99,72,47,0.00,40.00,17,6,24,0.00
2013-5-21,87,78,69,71,65,61,97,66,42,0.00,40.00,17,7,23,0.00
2013-5-22,81,72,62,70,66,61,99,83,52,0.00,40.00,19,6,29,0.00
2013-5-23,64,58,49,64,57,48,99,95,88,0.00,40.00,14,7,21,4.40
2013-5-24,64,51,40,48,40,36,99,69,38,0.00,40.00,14,6,19,0.00
2013-5-25,71,55,38,51,41,37,99,66,33,0.00,40.00,7,2,16,0.00
2013-5-26,73,59,41,46,37,30,99,52,22,0.00,40.00,7,2,11,0.00
2013-5-27,60,55,52,55,48,36,99,82,42,0.00,40.00,7,4,16,12.34
2013-5-28,81,70,56,73,66,56,99,87,71,0.00,40.00,14,6,24,7.28
2013-5-29,86,76,65,71,67,64,98,73,53,0.00,40.00,16,8,24,0.00
2013-5-30,89,77,65,71,68,65,98,76,51,0.00,40.00,16,5,24,5.63
2013-5-31,80,73,67,73,71,67,99,91,74,0.00,40.00,12,5,19,4.44
2013-6-1,78,70,64,72,67,64,99,88,69,0.00,40.00,16,6,24,7.23
2013-6-2,72,66,57,69,59,-100,98,82,68,0.00,40.00,16,9,22,0.00
2013-6-3,70,59,46,51,45,41,97,62,37,0.00,40.00,9,4,14,0.00
2013-6-4,76,62,47,54,49,46,99,66,38,0.00,40.00,6,2,10,0.00
2013-6-5,78,65,54,56,50,43,88,61,37,0.00,40.00,9,3,14,0.00
2013-6-6,77,64,57,59,53,48,85,67,50,0.00,40.00,7,4,13,0.00
2013-6-7,68,60,51,57,54,51,99,83,64,0.00,40.00,9,3,15,0.00
2013-6-8,78,63,47,61,53,47,99,74,42,0.00,40.00,7,1,12,0.00
2013-6-9,82,70,59,67,62,57,94,77,57,0.00,40.00,7,-4,15,0.55
2013-6-10,78,70,67,71,68,65,99,92,67,0.00,40.00,17,5,22,5.54
2013-6-11,85,74,65,68,66,64,99,77,52,0.00,40.00,11,7,16,0.00
2013-6-12,87,75,66,76,70,66,99,86,66,0.00,40.00,12,2,16,0.00
2013-6-13,79,71,65,69,61,53,99,73,41,0.00,40.00,14,7,24,5.59
2013-6-14,82,69,58,64,59,54,99,73,41,0.00,40.00,9,3,16,0.00
2013-6-15,81,67,56,68,62,56,99,86,52,0.00,40.00,9,-4,13,3.34
2013-6-16,84,74,64,70,67,62,99,81,55,0.00,40.00,14,7,21,0.00
2013-6-17,88,75,62,73,64,59,99,72,40,0.00,40.00,11,3,20,0.00
2013-6-18,78,70,61,65,60,47,99,73,56,0.00,40.00,9,4,16,0.00
2013-6-19,79,66,50,57,51,45,85,62,38,0.00,40.00,5,2,10,0.00
2013-6-20,85,66,51,59,55,51,99,73,39,0.00,40.00,4,1,8,0.00
2013-6-22,91,85,77,79,75,70,88,72,63,0.00,40.00,15,6,22,0.00
2013-6-23,91,80,68,71,69,65,99,73,49,0.00,40.00,21,5,29,0.00
2013-6-24,90,77,68,73,70,67,99,79,51,0.00,40.00,11,4,18,0.00
2013-6-25,90,78,68,76,71,62,99,80,54,0.00,40.00,16,8,22,3.30
2013-6-26,83,72,68,77,70,67,99,95,76,0.00,40.00,13,4,21,3.34
2013-6-27,86,75,70,73,71,70,99,89,63,0.00,40.00,14,4,19,0.00
2013-6-28,82,72,65,71,68,63,99,88,56,0.00,40.00,16,4,25,0.55
2013-6-29,80,69,62,68,65,62,99,88,59,0.00,40.00,7,2,14,1.65
2013-6-30,79,69,63,67,64,61,99,85,55,0.00,40.00,7,-5,14,4.99
2013-7-1,72,66,61,64,58,54,95,76,63,0.00,40.00,9,4,24,0.00
2013-7-2,74,66,60,68,63,58,99,91,78,0.00,40.00,6,3,12,4.48
2013-7-3,84,72,66,73,68,65,99,89,52,0.00,40.00,9,3,19,0.00
2013-7-4,83,75,64,70,64,59,99,72,50,0.00,40.00,7,2,12,0.55
2013-7-5,86,75,69,74,70,64,99,84,49,0.00,40.00,6,2,10,0.55
2013-7-6,80,74,68,74,72,68,99,92,76,0.00,40.00,7,-8,12,3.93
2013-7-7,81,72,67,72,70,67,99,94,70,0.00,40.00,11,4,20,0.00
2013-7-8,84,72,67,77,69,-100,99,93,74,0.00,40.00,10,3,16,1.65
2013-7-9,89,76,69,80,74,69,99,94,70,0.00,40.00,12,3,17,1.69
2013-7-10,86,75,66,81,68,-100,99,83,52,0.00,40.00,14,6,22,0.00
2013-7-11,83,70,61,64,60,56,98,72,43,0.00,40.00,7,3,14,0.00
2013-7-12,82,68,57,65,60,57,99,79,44,0.00,40.00,6,2,13,0.00
2013-7-13,85,75,59,70,65,59,99,74,53,0.00,40.00,8,2,13,0.00
2013-7-14,89,78,67,74,71,67,99,80,56,0.00,40.00,7,2,13,0.00
2013-7-15,93,79,70,80,74,70,99,85,54,0.00,40.00,6,2,11,0.55
2013-7-16,93,83,73,79,75,73,99,80,53,0.00,40.00,7,2,11,0.00
2013-7-17,92,81,71,79,75,71,99,85,57,0.00,40.00,9,3,13,0.00
2013-7-18,94,84,72,79,75,72,99,78,55,0.00,40.00,8,3,14,0.00
2013-7-19,93,85,76,78,76,74,98,76,54,0.00,40.00,15,7,24,0.00
2013-7-20,87,80,71,78,70,-100,99,76,49,0.00,40.00,20,4,30,0.55
2013-7-21,87,76,65,71,67,64,99,78,48,0.00,40.00,6,2,10,0.00
2013-7-22,84,72,65,72,68,65,99,88,56,0.00,40.00,15,3,23,4.44
2013-7-23,84,74,66,73,67,58,99,81,58,0.00,40.00,14,6,22,0.00
2013-7-24,75,64,53,59,54,52,98,72,49,0.00,40.00,7,3,16,0.00
2013-7-25,80,64,52,62,56,52,99,79,41,0.00,40.00,4,1,9,0.00
2013-7-26,79,68,55,65,60,55,99,78,51,0.00,40.00,7,2,14,0.00
2013-7-27,80,68,56,69,62,55,99,82,49,0.00,40.00,17,6,25,0.00
2013-7-28,68,59,53,56,53,51,99,81,57,0.00,40.00,17,7,24,0.00
2013-7-29,74,59,51,60,56,51,99,89,58,0.00,40.00,10,3,17,0.00
2013-7-30,82,64,50,67,58,50,99,82,46,0.00,40.00,6,1,8,0.00
2013-7-31,78,70,66,71,68,66,99,93,70,0.00,40.00,9,2,12,2.20
2013-8-1,80,70,59,69,62,54,99,77,44,0.00,40.00,13,6,21,0.00
2013-8-2,78,64,53,71,62,53,99,93,71,0.00,40.00,11,4,17,2.20
2013-8-3,80,72,61,69,60,54,99,71,44,0.00,40.00,11,4,16,0.00
2013-8-4,77,65,54,60,56,52,99,74,43,0.00,40.00,11,3,17,0.00
2013-8-5,77,63,51,66,57,50,99,85,40,0.00,40.00,6,1,9,0.00
2013-8-6,81,71,64,72,67,64,99,88,70,0.00,40.00,9,3,14,0.00
2013-8-7,84,73,65,78,71,65,99,94,73,0.00,40.00,6,2,16,1.69
2013-8-8,78,73,68,72,70,66,99,89,73,0.00,40.00,6,2,11,0.00
2013-8-9,82,71,64,70,63,54,99,78,45,0.00,40.00,7,2,11,0.00
2013-8-10,83,73,64,68,66,64,99,80,56,0.00,40.00,6,2,9,0.00
2013-8-11,82,69,56,68,62,56,99,79,47,0.00,40.00,9,2,16,0.00
2013-8-12,85,70,63,71,66,63,99,88,55,0.00,40.00,12,2,17,0.00
2013-8-13,71,63,56,68,53,-100,99,76,49,0.00,40.00,12,6,19,0.00
2013-8-14,74,57,48,55,44,-100,99,74,42,0.00,40.00,9,3,13,0.00
2013-8-15,77,52,46,61,30,-100,99,71,39,0.00,40.00,6,1,10,0.00
2013-8-16,82,62,51,60,47,-100,99,73,37,0.00,40.00,6,1,9,0.55
2013-8-20,88,70,59,71,60,-100,99,79,47,0.00,40.00,7,2,11,0.00
2013-8-21,88,74,62,72,67,62,99,81,49,0.00,40.00,8,2,15,0.00
2013-8-22,83,73,68,74,71,68,99,93,70,0.00,40.00,11,4,20,3.34
2013-8-23,83,72,58,70,62,52,99,75,36,0.00,40.00,6,3,13,1.69
2013-8-24,84,69,54,68,58,54,99,74,39,0.00,40.00,6,2,11,0.00
2013-8-25,88,68,55,67,58,-100,99,77,43,0.00,40.00,10,2,14,0.00
2013-8-26,89,76,62,74,68,62,99,79,55,0.00,40.00,10,4,16,0.00
2013-8-27,89,77,72,78,74,72,99,91,69,0.00,40.00,7,3,14,1.10
2013-9-2,79,72,61,73,64,57,99,78,49,0.00,40.00,12,6,21,0.00
2013-9-3,77,65,58,59,56,52,98,72,49,0.00,40.00,10,4,17,0.00
2013-9-4,83,66,51,64,56,51,99,74,39,0.00,40.00,12,4,17,0.00
2013-9-5,77,66,52,62,50,37,99,64,24,0.00,40.00,7,3,13,0.00
2013-9-6,82,63,46,58,51,46,99,73,32,0.00,40.00,4,1,9,0.00
2013-9-7,86,69,54,71,61,53,99,79,45,0.00,40.00,9,2,17,0.00
2013-9-8,78,69,61,69,63,-100,99,85,62,0.00,40.00,8,2,14,0.00
2013-10-5,78,69,62,73,68,62,99,96,77,0.00,40.00,6,2,11,1.10
2013-10-6,71,65,55,71,64,49,99,97,82,0.00,40.00,16,5,22,3.89
2013-10-7,62,51,44,49,45,42,99,80,52,0.00,40.00,17,7,25,0.00
2013-10-8,71,53,39,51,44,38,99,78,40,0.00,40.00,7,2,12,0.00
2013-10-9,73,56,42,48,44,40,99,70,32,0.00,40.00,9,2,13,0.00
2013-10-10,76,54,41,54,44,40,99,77,28,0.00,40.00,6,1,9,0.00
2013-10-11,78,57,41,56,47,41,99,76,34,0.00,40.00,4,1,9,0.00
2013-10-12,81,62,47,61,54,47,99,79,36,0.00,40.00,7,1,12,0.55
2013-11-13,39,30,20,24,20,16,97,70,41,0.00,40.00,14,8,21,0.00
2013-11-14,54,40,31,27,23,20,71,53,31,0.00,40.00,15,10,23,0.00
2013-11-15,53,44,34,32,29,24,65,55,45,0.00,40.00,11,6,17,0.00
2013-11-16,58,46,35,57,42,-100,99,88,68,0.00,40.00,13,5,20,1.69
2013-11-17,65,59,49,63,56,42,99,91,69,0.00,40.00,32,12,43,2.79
2013-11-18,48,41,36,40,34,27,87,75,68,0.00,40.00,24,16,36,0.00
2013-11-19,45,37,29,28,26,23,90,66,43,0.00,40.00,11,4,20,0.00
2013-12-8,27,20,12,27,18,10,99,89,74,0.00,40.00,9,4,20,0.00
2013-12-9,29,25,18,29,21,11,99,84,72,0.00,40.00,19,11,26,0.55
2013-12-10,24,17,7,13,8,3,85,69,47,0.00,40.00,19,11,29,0.00
2013-12-11,26,18,7,20,13,5,93,81,73,0.00,40.00,12,8,21,2.20
2013-12-12,19,11,3,13,4,-1,93,74,52,0.00,40.00,14,7,19,0.00
2013-12-13,34,23,12,24,16,7,86,74,60,0.00,40.00,9,4,12,0.00
2013-12-14,27,23,21,26,20,-100,99,94,87,0.00,40.00,9,6,17,26.94
2013-12-16,21,18,16,15,12,10,95,78,64,0.00,40.00,6,2,9,5.03
2013-12-17,26,22,16,24,21,15,99,95,88,0.00,40.00,14,7,21,0.00
2013-12-18,27,22,13,25,17,13,97,81,61,0.00,40.00,11,6,16,0.00
2013-12-19,44,37,23,37,31,16,98,80,61,0.00,40.00,12,4,17,0.00
2013-12-20,52,44,37,52,44,37,99,99,95,0.00,40.00,9,4,15,1.65